Dumas, TX

10:15 PM CDT on August 28, 2016 (GMT -0500)
Moore County

Weather History for KDUX - June, 2013

Change the Weather History Date:

Tuesday, June 11, 2013

  Actual Average (KBGD) Record (KBGD)
Temperature  
Mean Temperature 88 °F 76 °F  
Max Temperature 100 °F 88 °F 107 °F (2008)
Min Temperature 77 °F 63 °F 45 °F (1975)
Degree Days  
Heating Degree Days 0 0  
Month to date heating degree days 0  
Since 1 June heating degree days 0  
Since 1 July heating degree days 3763  
Cooling Degree Days 23 11  
Month to date cooling degree days 106  
Year to date cooling degree days 303  
Since 1 June cooling degree days 106  
Growing Degree Days 38 (Base 50)    
Moisture  
Dew Point 47 °F    
Average Humidity 23    
Maximum Humidity 37    
Minimum Humidity 17    
Precipitation  
Precipitation 0.00 in 0.10 in 2.18 in (1965)
Month to date precipitation 1.23  
Year to date precipitation 8.28  
Snow  
Snow 0.00 in - T in (1984)
Month to date snowfall  
Since 1 June snowfall  
Since 1 July snowfall  
Snow Depth -    
Sea Level Pressure  
Sea Level Pressure 29.93 in    
Wind  
Wind Speed 21 mph (South)    
Max Wind Speed 30 mph    
Max Gust Speed 37 mph    
Visibility 10 miles    
Events      
T = Trace of Precipitation, MM = Missing Value Source: NWS Daily Summary

Daily Weather History Graph

Daily Weather History Graph

Search for Another Location

Airport or City:

Trip Planner

Search our weather history database for the weather conditions in past years. The results will help you decide how hot, cold, wet, or windy it might be!

Date:

Astronomy

Jun. 11, 2013 Rise Set
Actual Time 6:31 AM CDT 9:04 PM CDT
Civil Twilight 6:01 AM CDT 9:34 PM CDT
Nautical Twilight 5:23 AM CDT 10:11 PM CDT
Astronomical Twilight 4:42 AM CDT 10:53 PM CDT
Moon 9:12 AM CDT (6/11) 11:13 PM CDT (6/11)
Length of Visible Light 15h 33m
Length of Day
14h 33m
Waxing Crescent, 8% of the Moon is Illuminated
Jun 11
Waxing Crescent
Jun 16
First Quarter
Jun 23
Full
Jun 29
Last Quarter
Jul 8
New

Hourly Weather History & Observations

Time (CDT) Temp. Dew Point Humidity Pressure Visibility Wind Dir Wind Speed Gust Speed Precip Events Conditions
12:15 AM 81.1 °F 47.3 °F 30% 29.96 in 10.0 mi South 21.9 mph 26.5 mph N/A   Clear
12:35 AM 80.8 °F 46.6 °F 30% 29.96 in 10.0 mi South 20.7 mph 27.6 mph N/A   Clear
12:55 AM 79.9 °F 46.8 °F 31% 29.97 in 10.0 mi South 20.7 mph 28.8 mph N/A   Clear
1:15 AM 79.7 °F 47.3 °F 32% 29.98 in 10.0 mi South 19.6 mph 26.5 mph N/A   Clear
1:35 AM 78.8 °F 47.5 °F 33% 29.98 in 10.0 mi South 19.6 mph 24.2 mph N/A   Clear
1:55 AM 78.4 °F 48.9 °F 35% 29.98 in 10.0 mi South 23.0 mph 26.5 mph N/A   Clear
2:15 AM 77.2 °F 49.1 °F 37% 29.98 in 10.0 mi South 18.4 mph - N/A   Clear
2:35 AM 77.0 °F 48.9 °F 37% 29.99 in 10.0 mi SSW 19.6 mph 25.3 mph N/A   Clear
12:35 PM 94.3 °F 50.7 °F 23% 29.98 in 10.0 mi SSW 19.6 mph 28.8 mph N/A   Clear
12:55 PM 95.7 °F 50.5 °F 22% 29.98 in 10.0 mi South 19.6 mph - N/A   Clear
1:15 PM 96.1 °F 49.6 °F 21% 29.98 in 10.0 mi SSW 18.4 mph 27.6 mph N/A   Clear
1:35 PM 96.8 °F 49.1 °F 20% 29.97 in 10.0 mi SSW 21.9 mph 27.6 mph N/A   Clear
1:55 PM 98.4 °F 49.3 °F 19% 29.97 in 10.0 mi SW 19.6 mph 26.5 mph N/A   Clear
2:15 PM 98.1 °F 49.8 °F 19% 29.96 in 10.0 mi SSW 19.6 mph 27.6 mph N/A   Clear
2:35 PM 98.2 °F 50.2 °F 20% 29.96 in 10.0 mi SSW 20.7 mph 26.5 mph N/A   Clear
2:55 PM 99.5 °F 51.1 °F 20% 29.95 in 10.0 mi South 23.0 mph 31.1 mph N/A   Clear
3:15 PM 98.8 °F 50.5 °F 20% 29.94 in 10.0 mi SSW 19.6 mph 28.8 mph N/A   Clear
3:35 PM 99.0 °F 50.0 °F 19% 29.93 in 10.0 mi SSW 19.6 mph 31.1 mph N/A   Clear
3:55 PM 99.5 °F 50.4 °F 19% 29.93 in 10.0 mi South 23.0 mph 33.4 mph N/A   Clear
4:15 PM 99.5 °F 48.6 °F 18% 29.93 in 10.0 mi SSW 20.7 mph 31.1 mph N/A   Clear
4:35 PM 99.3 °F 48.4 °F 18% 29.92 in 10.0 mi South 20.7 mph 31.1 mph N/A   Clear
4:55 PM 99.1 °F 48.0 °F 18% 29.92 in 10.0 mi South 25.3 mph 31.1 mph N/A   Clear
5:15 PM 99.0 °F 47.7 °F 17% 29.91 in 10.0 mi SSW 21.9 mph 32.2 mph N/A   Clear
5:35 PM 98.8 °F 47.3 °F 17% 29.91 in 10.0 mi South 24.2 mph 34.5 mph N/A   Clear
5:55 PM 99.0 °F 46.8 °F 17% 29.90 in 10.0 mi SSW 24.2 mph 32.2 mph N/A   Clear
6:15 PM 98.1 °F 46.6 °F 17% 29.90 in 10.0 mi South 23.0 mph 33.4 mph N/A   Clear
6:35 PM 97.7 °F 46.9 °F 18% 29.88 in 10.0 mi South 26.5 mph 32.2 mph N/A   Clear
6:55 PM 96.8 °F 46.2 °F 18% 29.87 in 10.0 mi South 27.6 mph 36.8 mph N/A   Clear
7:15 PM 96.1 °F 46.2 °F 18% 29.86 in 10.0 mi South 26.5 mph 32.2 mph N/A   Clear
7:35 PM 94.8 °F 45.3 °F 18% 29.86 in 10.0 mi South 29.9 mph 35.7 mph N/A   Clear
7:55 PM 93.6 °F 45.0 °F 19% 29.86 in 10.0 mi South 25.3 mph 33.4 mph N/A   Clear
8:15 PM 92.3 °F 44.8 °F 19% 29.86 in 10.0 mi South 24.2 mph 32.2 mph N/A   Clear
8:35 PM 90.9 °F 44.1 °F 20% 29.87 in 10.0 mi South 21.9 mph 33.4 mph N/A   Clear
8:55 PM 88.7 °F 44.1 °F 21% 29.88 in 10.0 mi South 18.4 mph 26.5 mph N/A   Clear
9:15 PM 87.1 °F 45.0 °F 23% 29.88 in 10.0 mi South 17.3 mph - N/A   Scattered Clouds
9:35 PM 86.2 °F 45.0 °F 24% 29.89 in 10.0 mi South 19.6 mph - N/A   Scattered Clouds
9:55 PM 85.6 °F 45.1 °F 24% 29.90 in 10.0 mi South 20.7 mph 26.5 mph N/A   Clear
10:15 PM 84.9 °F 45.0 °F 25% 29.91 in 10.0 mi South 19.6 mph 26.5 mph N/A   Clear
10:35 PM 84.0 °F 45.5 °F 26% 29.92 in 10.0 mi South 19.6 mph 24.2 mph N/A   Clear
10:55 PM 83.3 °F 45.9 °F 27% 29.93 in 10.0 mi South 17.3 mph - N/A   Clear
11:15 PM 82.4 °F 46.4 °F 28% 29.95 in 10.0 mi South 18.4 mph - N/A   Clear
11:35 PM 81.7 °F 47.1 °F 30% 29.95 in 10.0 mi South 20.7 mph 26.5 mph N/A   Clear
11:55 PM 80.8 °F 47.8 °F 31% 29.95 in 10.0 mi South 18.4 mph 24.2 mph N/A   Clear